Terminal Aerodrome Forecast
Issued by NWS

Home | Current Version | Previous Version | Text Only | Print | Product List | Glossary On
Versions: 1 2 3 4 5 6 7 8 9 10 11 12 13 14 15 16
000
FTUS45 KVEF 222300
TAFBIH
TAF
KBIH 222320Z 2300/2324 16016G25KT P6SM FEW110
     FM230300 17011KT P6SM SKC
     FM230900 33006KT P6SM SKC
     FM231800 17012G20KT P6SM FEW110=

USA.gov is the U.S. government's official web portal to all federal, state and local government web resources and services.